Location: Unspecified
(43.4354°N, 0.0000°E)
Time: 09:34:46
(UTC+00:00)

A-11 Canister half - Pass Details

Date: 23 June 2019
Orbit: 1514 x 1686 km, 47.2° (Epoch: 24 August)

Event Time Altitude Azimuth Distance (km) Brightness Sun altitude
Rises 15:14:27 0° 291° (WNW) 4,823 12.2 45.9°
Reaches altitude 10° 15:17:36 10° 291° (WNW) 3,813 11.9 45.4°
Maximum altitude 15:27:17 85° 204° (SSW) 1,563 10.0 43.7°
Drops below altitude 10° 15:36:37 10° 118° (ESE) 3,686 10.7 42.0°
Sets 15:39:36 0° 118° (ESE) 4,657 11.2 41.4°
